Regional Weather Roundup
Issued by NWS Kansas City/Pleasant Hill, MO

Home | Current Version | Previous Version | Graphics & Text | Print | Product List | Glossary Off
Versions: 1 2 3 4 5 6 7 8 9 10 11 12 13 14 15 16 17 18 19 20 21 22 23 24 25 26 27 28 29 30 31 32 33 34 35 36 37 38 39 40 41 42 43 44 45 46 47 48 49 50

962
ASUS43 KEAX 260210
RWREAX

WEATHER ROUNDUP FOR EASTERN KANSAS AND NORTHWEST MISSOURI
NATIONAL WEATHER SERVICE KANSAS CITY/PLEASANT HILL MO
900 PM CDT SUN JUN 25 2017

KSZ040-057-103>105-MOZ028-029-037-043-260300-
...KANSAS CITY METROPOLITAN AREA...

CITY           SKY/WX    TMP DP  RH WIND       PRES   REMARKS
K.C. INTL      PTCLDY    60  51  72 SW7       30.23S
K.C. DOWNTOWN  PTCLDY    64  53  67 W5        30.23S
LEES SUMMIT    CLOUDY    63  53  70 W3        30.23F
OLATHE - IXD   CLOUDY    60  56  86 CALM      30.24F
OLATHE - OJC   CLOUDY    63  52  67 NW3       30.23F
LAWRENCE       MOCLDY    62  57  83 CALM      30.24S

$$

MOZ001>008-011>017-020>025-030>033-038>040-044>046-053-054-260300-
...NORTHERN AND CENTRAL MISSOURI...

CITY           SKY/WX    TMP DP  RH WIND       PRES   REMARKS
ST. JOSEPH     CLEAR     65  54  67 SW5       30.23R
MOSBY          CLEAR     64  50  59 CALM      30.23S
WARRENSBURG    CLOUDY    63  50  63 NW6       30.23S
WHITEMAN AFB   CLOUDY    65  53  65 W6        30.21F
CLINTON        CLOUDY    66  55  68 NW3       30.23F
SEDALIA        CLOUDY    66  52  60 W8        30.23S
WARSAW         NOT AVBL
CHILLICOTHE      N/A     65  52  62 CALM      30.22S
KIRKSVILLE     CLEAR     63  49  60 W3        30.20F

$$

MOZ041-047>049-056>058-063>065-088>090-097-260300-
...EASTERN AND SOUTHERN MISSOURI...

CITY           SKY/WX    TMP DP  RH WIND       PRES   REMARKS
ST. LOUIS INTL PTCLDY    74  45  35 NW8       30.17F
SPIRIT OF STL  PTCLDY    72  48  42 NW6       30.16F
COLUMBIA       CLOUDY    70  50  49 NW7       30.20F
JEFFERSON CITY CLOUDY    72  52  49 W6        30.19F
ROLLA          CLOUDY    69  52  54 NW6       30.20S
OSAGE BEACH    CLOUDY    71  48  43 NW3       30.22S
SPRINGFIELD    CLEAR     71  57  61 N7        30.21F
BRANSON        PTCLDY    72  57  60 CALM      30.22F
JOPLIN         CLOUDY    71  56  58 NE8       30.23R
WEST PLAINS    PTCLDY    72  55  55 NW3       30.22S

$$

IAZ060-094-KSZ022-034>040-054-083-096-NEZ052-066-093-260300-
...KANSAS...SOUTHEAST NEBRASKA AND IOWA...

CITY           SKY/WX    TMP DP  RH WIND       PRES   REMARKS
TOPEKA         PTCLDY    63  56  78 CALM      30.23F
MANHATTAN      PTCLDY    61  58  90 CALM      30.23F
EMPORIA        CLOUDY    64  56  75 E3        30.23F
CHANUTE        CLOUDY    69  53  56 NE9G20    30.22F
WICHITA        CLOUDY    65  59  81 NE13      30.22F
OMAHA          PTCLDY    72  44  36 CALM      30.21S
LINCOLN        CLEAR     69  46  43 NE5       30.22S
FALLS CITY     CLEAR     68  51  54 S7        30.21S
LAMONI         CLEAR     65  47  52 W6        30.21S
DES MOINES     PTCLDY    67  43  41 W6        30.19S

$$





USA.gov is the U.S. government's official web portal to all federal, state and local government web resources and services.